N9AAA Weather Reports


time (UTC)temp
C
wind
direction
speed
KPH
gust
KPH
rain 1hr
cm
rain 24hr
cm
rain mn
cm
humidity
%
barometer
mb
20260504035539 11 0 0.0 0.0 0.00 0.03 0.03 77 1004.7
20260504035042 11 0 0.0 0.0 0.00 0.03 0.03 77 1004.7
20260504034555 11 0 0.0 0.0 0.00 0.03 0.03 77 1004.7
20260504034038 11 0 0.0 3.2 0.00 0.03 0.03 77 1004.7
20260504033538 11 0 0.0 3.2 0.00 0.03 0.03 76 1004.8
20260504033056 11 0 0.0 0.0 0.00 0.03 0.03 76 1004.8
20260504032538 11 0 0.0 3.2 0.00 0.03 0.03 75 1004.8
20260504032040 12 0 0.0 3.2 0.00 0.03 0.03 74 1004.7
20260504031546 12 0 0.0 1.6 0.00 0.03 0.03 74 1004.7
20260504031039 12 0 0.0 1.6 0.00 0.03 0.03 73 1004.6
20260504030538 12 0 0.0 0.0 0.00 0.03 0.03 72 1004.6
20260504030047 12 0 0.0 0.0 0.00 0.03 0.03 72 1004.6
20260504025536 12 0 0.0 0.0 0.00 0.03 0.03 71 1004.6
20260504025038 12 0 0.0 1.6 0.00 0.03 0.03 71 1004.5
20260504024550 13 0 0.0 1.6 0.00 0.03 0.03 70 1004.5
20260504024039 13 0 0.0 1.6 0.00 0.03 0.03 69 1004.5
20260504023555 13 0 0.0 0.0 0.00 0.03 0.03 69 1004.5
20260504023050 13 0 0.0 0.0 0.00 0.03 0.03 68 1004.5
20260504022541 13 0 0.0 0.0 0.00 0.03 0.03 67 1004.4
20260504022043 13 0 0.0 1.6 0.00 0.03 0.03 66 1004.3
20260504021546 14 0 0.0 1.6 0.00 0.03 0.03 65 1004.4
20260504021040 14 0 0.0 1.6 0.00 0.03 0.03 64 1004.4
20260504020540 15 234 0.0 1.6 0.00 0.03 0.03 64 1004.4
20260504020056 15 234 0.0 1.6 0.00 0.03 0.03 62 1004.3
20260504015540 15 0 0.0 1.6 0.00 0.03 0.03 62 1004.2
20260504015040 15 0 0.0 1.6 0.00 0.03 0.03 61 1004.3
20260504014549 16 0 0.0 1.6 0.00 0.03 0.03 59 1004.3
20260504014040 16 0 0.0 1.6 0.00 0.03 0.03 58 1004.3
20260504013540 16 0 0.0 3.2 0.00 0.03 0.03 57 1004.3
20260504013050 16 0 0.0 3.2 0.00 0.03 0.03 56 1004.3
20260504012543 17 234 1.6 3.2 0.00 0.03 0.03 55 1004.2
20260504012041 17 245 0.0 3.2 0.00 0.03 0.03 54 1004.2
20260504011550 17 0 0.0 3.2 0.00 0.03 0.03 53 1004.2
20260504011040 18 0 0.0 3.2 0.00 0.03 0.03 52 1004.1
20260504010540 18 246 0.0 3.2 0.00 0.03 0.03 51 1004.1
20260504010047 18 0 0.0 6.4 0.00 0.03 0.03 50 1004.0
20260504005540 18 242 1.6 8.0 0.00 0.03 0.03 49 1003.9
20260504005040 18 263 3.2 12.9 0.00 0.03 0.03 49 1004.0
20260504004548 19 241 4.8 12.9 0.00 0.03 0.03 48 1003.9
20260504004041 19 252 3.2 12.9 0.00 0.03 0.03 48 1003.8
20260504003540 19 241 3.2 12.9 0.00 0.03 0.03 47 1003.9
20260504003047 19 243 4.8 12.9 0.00 0.03 0.03 47 1003.9
20260504002543 20 242 4.8 14.5 0.00 0.03 0.03 46 1003.9
20260504002041 20 254 6.4 14.5 0.00 0.03 0.03 46 1003.9
20260504001551 20 217 4.8 17.7 0.00 0.03 0.03 46 1003.8
20260504001040 20 250 6.4 17.7 0.00 0.03 0.03 46 1003.8
20260504000542 20 265 3.2 14.5 0.00 0.03 0.03 46 1003.8
20260504000053 20 233 4.8 14.5 0.00 0.03 0.03 45 1003.7
20260503235540 20 233 4.8 14.5 0.00 0.03 0.03 45 1003.8
20260503235041 20 296 6.4 14.5 0.00 0.03 0.03 45 1003.9
20260503234551 20 249 8.0 16.1 0.00 0.03 0.03 45 1003.9
20260503234044 20 217 4.8 16.1 0.00 0.03 0.03 44 1004.0
20260503233543 20 277 6.4 16.1 0.00 0.03 0.03 44 1004.0
20260503233058 20 254 3.2 20.9 0.00 0.03 0.03 45 1004.1
20260503232538 20 301 6.4 20.9 0.00 0.03 0.03 44 1004.0
20260503232037 20 350 3.2 16.1 0.00 0.03 0.03 44 1004.1
20260503231545 20 273 4.8 12.9 0.00 0.03 0.03 45 1004.2
20260503231039 20 244 3.2 24.1 0.00 0.03 0.03 44 1004.2
20260503230540 20 304 9.7 24.1 0.00 0.03 0.03 44 1004.1
20260503230103 20 250 8.0 22.5 0.00 0.03 0.03 45 1004.3
20260503225539 20 299 6.4 27.4 0.00 0.03 0.03 45 1004.3
20260503225039 20 311 8.0 30.6 0.00 0.03 0.03 44 1004.4
20260503224552 20 271 9.7 30.6 0.00 0.03 0.03 43 1004.5
20260503224039 20 220 6.4 22.5 0.00 0.03 0.03 45 1004.5
20260503223538 20 304 6.4 29.0 0.00 0.03 0.03 45 1004.6
20260503223050 20 227 12.9 29.0 0.00 0.03 0.03 44 1004.5
20260503222539 20 265 9.7 27.4 0.00 0.03 0.03 43 1004.6
20260503222042 20 225 12.9 27.4 0.00 0.03 0.03 44 1004.6
20260503221556 20 279 9.7 27.4 0.00 0.03 0.03 44 1004.5
20260503221039 20 254 16.1 27.4 0.00 0.03 0.03 44 1004.5
20260503220539 20 315 8.0 24.1 0.00 0.03 0.03 44 1004.5
20260503220057 20 259 11.3 32.2 0.00 0.03 0.03 45 1004.5
20260503215538 20 304 17.7 32.2 0.00 0.03 0.03 44 1004.7
20260503215038 20 246 12.9 29.0 0.00 0.03 0.03 44 1004.7
20260503214550 20 275 16.1 29.0 0.00 0.03 0.03 43 1004.6
20260503214039 20 194 11.3 29.0 0.00 0.03 0.03 44 1004.5
20260503213539 20 254 9.7 25.7 0.00 0.03 0.03 46 1004.5
20260503213052 20 252 8.0 30.6 0.00 0.03 0.03 45 1004.6
20260503212539 20 308 14.5 35.4 0.00 0.03 0.03 45 1004.6
20260503212039 20 232 11.3 35.4 0.00 0.03 0.03 46 1004.6
20260503211603 20 277 14.5 27.4 0.00 0.03 0.03 44 1004.7
20260503211039 20 240 8.0 32.2 0.00 0.03 0.03 45 1004.8
20260503210540 20 230 12.9 32.2 0.00 0.03 0.03 45 1004.9
20260503210042 20 223 8.0 27.4 0.00 0.03 0.03 45 1005.1
20260503205540 20 268 6.4 30.6 0.00 0.03 0.03 46 1005.1
20260503205039 20 277 14.5 30.6 0.00 0.03 0.03 46 1005.3
20260503204548 19 242 11.3 27.4 0.00 0.03 0.03 46 1005.1
20260503204039 19 252 9.7 30.6 0.00 0.03 0.03 46 1005.4
20260503203538 19 308 17.7 30.6 0.00 0.03 0.03 47 1005.5
20260503203053 20 236 11.3 29.0 0.00 0.03 0.03 46 1005.6
20260503202539 19 248 14.5 35.4 0.00 0.03 0.03 47 1005.5
20260503202039 19 297 11.3 38.6 0.00 0.03 0.03 48 1005.7
20260503201547 18 204 19.3 38.6 0.00 0.03 0.03 47 1005.7
20260503201041 19 219 11.3 35.4 0.00 0.03 0.03 48 1005.7
20260503200539 18 238 17.7 32.2 0.00 0.03 0.03 46 1005.8
20260503200058 18 194 14.5 33.8 0.00 0.03 0.03 47 1005.7
20260503195539 18 194 17.7 33.8 0.00 0.03 0.03 47 1006.0
20260503195038 18 236 16.1 35.4 0.00 0.03 0.03 47 1006.2
20260503194547 18 228 17.7 35.4 0.00 0.03 0.03 46 1006.2
20260503194039 18 225 17.7 33.8 0.00 0.03 0.03 48 1006.4
20260503193538 18 186 19.3 33.8 0.00 0.03 0.03 47 1006.3
20260503193058 18 270 16.1 33.8 0.00 0.03 0.03 47 1006.2
20260503192541 18 206 14.5 33.8 0.00 0.03 0.03 47 1006.5
20260503192038 18 219 19.3 46.7 0.00 0.03 0.03 47 1006.4
20260503191549 18 240 19.3 46.7 0.00 0.03 0.03 47 1006.6
20260503191039 18 199 19.3 57.9 0.00 0.03 0.03 47 1006.6
20260503190538 18 267 16.1 57.9 0.00 0.03 0.03 48 1006.7
20260503190050 18 198 22.5 57.9 0.00 0.03 0.03 47 1006.7
20260503185538 17 208 17.7 48.3 0.00 0.03 0.03 50 1006.7
20260503185038 17 215 12.9 38.6 0.00 0.03 0.03 50 1006.7
20260503184558 17 237 19.3 38.6 0.00 0.03 0.03 52 1006.8
20260503184039 17 225 16.1 37.0 0.00 0.03 0.03 53 1006.8
20260503183539 17 222 12.9 37.0 0.00 0.03 0.03 54 1006.9
20260503183045 17 217 20.9 32.2 0.00 0.03 0.03 52 1006.9
20260503182540 17 229 16.1 40.2 0.00 0.03 0.03 52 1007.1
20260503182038 17 228 17.7 40.2 0.00 0.03 0.03 52 1007.1
20260503181608 17 223 17.7 40.2 0.00 0.03 0.03 50 1007.2
20260503181039 17 212 14.5 41.8 0.00 0.03 0.03 51 1007.2
20260503180539 16 257 20.9 41.8 0.00 0.03 0.03 50 1007.3
20260503180110 16 221 20.9 41.8 0.00 0.03 0.03 51 1007.3
20260503175538 16 201 24.1 41.8 0.00 0.03 0.03 51 1007.3
20260503175038 16 234 19.3 38.6 0.00 0.03 0.03 52 1007.4
20260503174555 16 234 19.3 38.6 0.00 0.03 0.03 54 1007.5
20260503174039 16 270 19.3 41.8 0.00 0.03 0.03 53 1007.5
20260503173539 16 194 20.9 41.8 0.00 0.03 0.03 53 1007.5
20260503173058 16 242 16.1 33.8 0.00 0.03 0.03 53 1007.4
20260503172542 16 259 14.5 41.8 0.00 0.03 0.03 55 1007.5
20260503172038 15 225 17.7 41.8 0.00 0.03 0.03 55 1007.5
20260503171545 15 225 19.3 40.2 0.00 0.03 0.03 55 1007.5
20260503171039 15 195 20.9 40.2 0.00 0.03 0.03 55 1007.5
20260503170539 15 231 19.3 41.8 0.00 0.03 0.03 58 1007.7
20260503150539 9 213 8.0 32.2 0.03 0.03 0.03 85 1010.4
20260503131038 11 250 9.7 22.5 0.00 0.00 0.00 63 1011.2
20260503130538 10 252 12.9 22.5 0.00 0.00 0.00 63 1011.4
20260503110541 8 248 9.7 24.1 0.00 0.00 0.00 60 1011.3
20260503081549 8 217 6.4 12.9 0.00 0.00 0.00 57 1012.4
20260503081036 8 234 6.4 14.5 0.00 0.00 0.00 57 1012.4
20260503080537 7 238 6.4 14.5 0.00 0.00 0.00 58 1012.4
20260503080105 7 242 4.8 14.5 0.00 0.00 0.00 58 1012.5
20260503072541 7 215 4.8 14.5 0.00 0.00 0.00 58 1012.8
20260503072039 7 188 6.4 14.5 0.00 0.00 0.00 58 1012.7
20260503071552 7 229 4.8 14.5 0.00 0.00 0.00 58 1012.7
20260503071043 7 209 6.4 14.5 0.00 0.00 0.00 58 1012.8
20260503070539 7 223 4.8 11.3 0.00 0.00 0.00 57 1012.8
20260503055038 8 227 8.0 16.1 0.00 0.00 0.00 55 1013.4
20260503054546 8 219 4.8 12.9 0.00 0.00 0.00 55 1013.4
20260503054039 8 234 4.8 16.1 0.00 0.00 0.00 55 1013.4
20260503053539 8 259 4.8 16.1 0.00 0.00 0.00 55 1013.4
20260503053045 8 270 4.8 17.7 0.00 0.00 0.00 55 1013.4
20260503052537 8 242 6.4 17.7 0.00 0.00 0.00 55 1013.5
20260503052038 8 236 4.8 17.7 0.00 0.00 0.00 55 1013.6
20260503051550 8 244 6.4 17.7 0.00 0.00 0.00 55 1013.6
20260503051042 8 227 4.8 12.9 0.00 0.00 0.00 55 1013.7
20260503050542 8 243 6.4 14.5 0.00 0.00 0.00 55 1013.7
20260503050040 8 245 4.8 14.5 0.00 0.00 0.00 55 1013.7
20260503045539 8 257 8.0 14.5 0.00 0.00 0.00 55 1013.6
20260503045036 8 213 3.2 11.3 0.00 0.00 0.00 56 1013.7
20260503044547 8 244 4.8 14.5 0.00 0.00 0.00 56 1013.8
20260503044038 8 210 4.8 14.5 0.00 0.00 0.00 56 1013.7
20260503043538 8 209 4.8 12.9 0.00 0.00 0.00 56 1013.8
20260503043043 8 255 3.2 14.5 0.00 0.00 0.00 56 1013.9
20260503042539 8 215 4.8 14.5 0.00 0.00 0.00 55 1014.0
20260503042039 8 205 4.8 12.9 0.00 0.00 0.00 55 1014.1
20260503041545 8 221 3.2 12.9 0.00 0.00 0.00 55 1014.1
20260503041039 8 209 3.2 11.3 0.00 0.00 0.00 55 1014.1
20260503040537 8 266 4.8 11.3 0.00 0.00 0.00 55 1014.1